Hilton Head Island, SC

7:12 AM EDT on October 22, 2017 (GMT -0400)
Hilton Head

Weather History for KHXD - October, 2012

Change the Weather History Date:

Friday, October 12, 2012

  Actual Average Record
Temperature  
Mean Temperature 68 °F -  
Max Temperature 78 °F 78 °F 89 °F (1963)
Min Temperature 57 °F 58 °F 45 °F (1966)
Cooling Degree Days 2    
Growing Degree Days 18 (Base 50)    
Moisture  
Dew Point 59 °F    
Average Humidity 91    
Maximum Humidity 100    
Minimum Humidity 44    
Precipitation  
Precipitation 0.00 in - - ()
Sea Level Pressure  
Sea Level Pressure 30.21 in    
Wind  
Wind Speed 1 mph (NNE)    
Max Wind Speed 9 mph    
Max Gust Speed -    
Visibility 8 miles    
Events      
Averages and records for this station are not official NWS values.
T = Trace of Precipitation, MM = Missing Value Source: NWS Daily Summary

Daily Weather History Graph

Daily Weather History Graph

Search for Another Location

Airport or City:

Trip Planner

Search our weather history database for the weather conditions in past years. The results will help you decide how hot, cold, wet, or windy it might be!

Date:

Astronomy

Oct. 12, 2012 Rise Set
Actual Time 7:24 AM EDT 6:53 PM EDT
Civil Twilight 6:59 AM EDT 7:17 PM EDT
Nautical Twilight 6:31 AM EDT 7:46 PM EDT
Astronomical Twilight 6:03 AM EDT 8:14 PM EDT
Moon 4:15 AM EDT (10/12) 4:54 PM EDT (10/12)
Length of Visible Light 12h 17m
Length of Day
11h 28m
Waning Crescent, 11% of the Moon is Illuminated
Oct 12
Waning Crescent
Oct 15
New
Oct 21
First Quarter
Oct 29
Full
Nov 6
Last Quarter

Hourly Weather History & Observations

Time (EDT) Temp. Dew Point Humidity Pressure Visibility Wind Dir Wind Speed Gust Speed Precip Events Conditions
12:15 AM 59.0 °F 59.0 °F 100% 30.24 in 8.0 mi Calm Calm - 0.00 in   Clear
12:35 AM 59.0 °F 59.0 °F 100% 30.24 in 9.0 mi Calm Calm - 0.00 in   Clear
12:55 AM 57.2 °F 57.2 °F 100% 30.24 in 8.0 mi Calm Calm - 0.00 in   Clear
1:15 AM 57.2 °F 57.2 °F 100% 30.23 in 8.0 mi NNE 3.5 mph - 0.00 in   Clear
1:35 AM 57.2 °F 57.2 °F 100% 30.23 in 8.0 mi NNE 3.5 mph - 0.00 in   Clear
1:55 AM 57.2 °F 57.2 °F 100% 30.22 in 6.0 mi Calm Calm - 0.00 in   Clear
2:15 AM 57.2 °F 57.2 °F 100% 30.22 in 6.0 mi Calm Calm - 0.00 in   Clear
2:35 AM 57.2 °F 57.2 °F 100% 30.21 in 7.0 mi Calm Calm - 0.00 in   Clear
2:55 AM 57.2 °F 57.2 °F 100% 30.21 in 7.0 mi Calm Calm - 0.00 in   Clear
3:15 AM 57.2 °F 57.2 °F 100% 30.21 in 5.0 mi Calm Calm - 0.00 in   Clear
3:35 AM 57.2 °F 57.2 °F 100% 30.20 in 5.0 mi Calm Calm - 0.00 in   Clear
3:55 AM 57.2 °F 57.2 °F 100% 30.20 in 5.0 mi Calm Calm - 0.00 in   Clear
4:15 AM 57.2 °F 57.2 °F 100% 30.20 in 6.0 mi Calm Calm - 0.00 in   Clear
4:35 AM 57.2 °F 57.2 °F 100% 30.20 in 6.0 mi Calm Calm - 0.00 in   Clear
4:55 AM 57.2 °F 57.2 °F 100% 30.20 in 4.0 mi Calm Calm - 0.00 in   Clear
5:15 AM 57.2 °F 57.2 °F 100% 30.19 in 5.0 mi Calm Calm - 0.00 in   Clear
5:35 AM 57.2 °F 57.2 °F 100% 30.20 in 4.0 mi Calm Calm - 0.00 in   Clear
5:55 AM 57.2 °F 57.2 °F 100% 30.20 in 6.0 mi Calm Calm - 0.00 in   Clear
6:15 AM 57.2 °F 57.2 °F 100% 30.21 in 6.0 mi Calm Calm - 0.00 in   Clear
6:50 AM 57.2 °F 57.2 °F 100% 30.22 in 7.0 mi Calm Calm - N/A   Clear
7:50 AM 57.2 °F 57.2 °F 100% 30.23 in - Calm Calm - N/A   Clear
8:50 AM 60.8 °F 60.8 °F 100% 30.24 in 7.0 mi Calm Calm - N/A   Clear
10:50 AM 73.4 °F 62.6 °F 69% 30.26 in 10.0 mi North 6.9 mph - N/A   Clear
12:50 PM 77.0 °F 59.0 °F 54% 30.23 in 10.0 mi NNE 8.1 mph - N/A   Partly Cloudy
1:50 PM 77.0 °F 53.6 °F 44% 30.20 in 10.0 mi North 9.2 mph - N/A   Scattered Clouds
2:50 PM 78.8 °F 60.8 °F 54% 30.17 in 10.0 mi Calm Calm - N/A   Clear
3:51 PM 75.2 °F 60.8 °F 61% 30.17 in 10.0 mi South 4.6 mph - N/A   Clear
4:50 PM 75.2 °F 62.6 °F 65% 30.17 in 10.0 mi SSW 5.8 mph - N/A   Clear
6:50 PM 69.8 °F 64.4 °F 83% 30.18 in 10.0 mi Calm Calm - N/A   Clear
8:50 PM 66.2 °F 62.6 °F 88% 30.21 in 10.0 mi Calm Calm - N/A   Clear
9:15 PM 64.4 °F 62.6 °F 94% 30.21 in 10.0 mi Calm Calm - 0.00 in   Clear
9:35 PM 66.2 °F 62.6 °F 88% 30.22 in 10.0 mi Calm Calm - 0.00 in   Clear